Date,TemperatureHighF,TemperatureAvgF,TemperatureLowF,DewpointHighF,DewpointAvgF,DewpointLowF,HumidityHigh,HumidityAvg,HumidityLow,PressureMaxIn,PressureMinIn,WindSpeedMaxMPH,WindSpeedAvgMPH,GustSpeedMaxMPH,PrecipitationSumIn
2013-10-1,72.0,57.9,43.0,-99.9,-99.9,-99.9,0,0,100,0.00,40.00,11,6,17,0.00
2013-10-2,83.0,60.3,44.0,-99.9,-99.9,-99.9,0,0,100,0.00,40.00,14,6,20,0.00
2013-10-3,69.0,50.2,36.0,-99.9,-99.9,-99.9,0,0,100,0.00,40.00,17,6,22,0.00
2013-10-4,44.0,29.4,17.0,-99.9,-99.9,-99.9,0,0,100,0.00,40.00,21,12,26,0.00
2013-10-5,59.0,39.2,14.0,-99.9,-99.9,-99.9,0,0,100,0.00,40.00,23,12,28,0.00
2013-10-6,75.0,55.2,37.0,-99.9,-99.9,-99.9,0,0,100,0.00,40.00,12,5,15,0.00
2013-10-7,78.0,57.8,36.0,-99.9,-99.9,-99.9,0,0,100,0.00,40.00,10,4,12,0.00
2013-10-8,84.0,59.5,45.0,-99.9,-99.9,-99.9,0,0,100,0.00,40.00,16,5,19,0.00
2013-10-9,68.0,53.2,43.0,-99.9,-99.9,-99.9,0,0,100,0.00,40.00,12,7,15,0.00
2013-10-10,64.0,48.6,37.0,-99.9,-99.9,-99.9,0,0,100,0.00,40.00,17,4,22,0.00
2013-10-11,64.0,49.1,38.0,-99.9,-99.9,-99.9,0,0,100,0.00,40.00,18,8,23,0.00
2013-10-12,64.0,46.2,36.0,-99.9,-99.9,-99.9,0,0,100,0.00,40.00,8,4,11,0.00
2013-10-13,67.0,49.2,33.0,-99.9,-99.9,-99.9,0,0,100,0.00,40.00,13,5,17,0.00
2013-10-14,51.0,41.6,26.0,-99.9,-99.9,-99.9,0,0,100,0.00,40.00,14,8,18,0.00
2013-10-15,52.0,36.3,25.0,-99.9,-99.9,-99.9,0,0,100,0.00,40.00,11,6,15,0.00
2013-10-16,61.0,40.1,22.0,-99.9,-99.9,-99.9,0,0,100,0.00,40.00,12,4,16,0.00
2013-10-17,55.0,39.1,24.0,-99.9,-99.9,-99.9,0,0,100,0.00,40.00,14,6,17,0.00
2013-10-18,48.0,35.1,24.0,-99.9,-99.9,-99.9,0,0,100,0.00,40.00,15,4,18,0.00
2013-10-19,69.0,45.9,27.0,-99.9,-99.9,-99.9,0,0,100,0.00,40.00,9,4,15,0.00
2013-10-20,51.0,37.4,21.0,-99.9,-99.9,-99.9,0,0,100,0.00,40.00,20,6,24,0.00
2013-10-21,65.0,42.9,25.0,-99.9,-99.9,-99.9,0,0,100,0.00,40.00,17,5,23,0.00
2013-10-22,71.0,51.4,33.0,-99.9,-99.9,-99.9,0,0,100,0.00,40.00,11,4,16,0.00
2013-10-23,69.0,51.9,35.0,-99.9,-99.9,-99.9,0,0,100,0.00,40.00,12,6,15,0.00
2013-10-24,64.0,43.0,29.0,-99.9,-99.9,-99.9,0,0,100,0.00,40.00,7,3,11,0.00
2013-10-25,78.0,50.7,28.0,-99.9,-99.9,-99.9,0,0,100,0.00,40.00,13,4,16,0.00
2013-10-26,66.0,50.3,33.0,-99.9,-99.9,-99.9,0,0,100,0.00,40.00,10,5,13,0.00
2013-10-27,75.0,53.2,32.0,-99.9,-99.9,-99.9,0,0,100,0.00,40.00,11,4,18,0.00
2013-10-28,51.0,31.9,21.0,-99.9,-99.9,-99.9,0,0,100,0.00,40.00,13,8,16,0.00
2013-10-29,48.0,33.8,26.0,-99.9,-99.9,-99.9,0,0,100,0.00,40.00,8,5,10,0.00
2013-10-30,45.0,35.0,21.0,-99.9,-99.9,-99.9,0,0,100,0.00,40.00,15,3,18,0.00
2013-10-31,57.0,40.7,27.0,-99.9,-99.9,-99.9,0,0,100,0.00,40.00,16,6,21,0.00